ASIASTAR

Last updated on Sun Jun 21 2026 00:03:03 GMT+0000 (Coordinated Universal Time)

1 26107U 00016A 26170.62860089 -.00000342 00000+0 00000+0 0 9996 2 26107 9.1362 58.1299 0004595 30.2265 150.7520 1.00267815 95941
UTC large
Height (km)
Speed (km/s)
/
Latitude / Longitude
Inclination (degrees)
Orbital Period (minutes)
Azimuth
Elevation
Range (km)
Doppler Factor

Next 0 passes for location: London (51.5072 / 0.1276)

No passes found over London.
ASIASTAR